Snel-info
Kleurcode:
Groen
Er mag gevlogen worden.
Laatste update: 21/02/2017
Kleurcode informatie

Grasmaaien:

Geen maaibeurten gepland.

Volgende vliegdagen:

(geen extra vliegdagen gevonden)
Alle extra vliegdagen

Weersituatie op PMF:

7_Jets_Over_Pampa_2008_Proclamatie_006_Luc.jpg

Huidige weersituatie

Huidig weerbeeld in Kleine Brogel, Belgium
Huidige wind in Kleine Brogel, Belgium

Dit is het bericht voor Kleine Brogel, Belgium en werd 19 minuten geleden gemaakt.
De wind waaide met een snelheid van 4.1 meter per seconde (14.8 km/h) uit het zuid/zuidwesten (200°).
De temperatuur was 16 °C. De atmosferische druk was 1025 hPa. De relative luchtvochtigheid was 59.0%.
Het was zwaar bewolkt op een hoogte van 2743 meter. Het algemene zicht was meer dan 10 kilometer.

De onbewerkte METAR gegevens waarop dit bericht is gebaseerd zijn:
EBBL 300825Z 20008KT 9999 BKN090 16/08 Q1025 BLU BLU


Opmerking:
De wind blijkt op PMF meestal iets krachtiger te waaien dan op Kleine Brogel. De windrichting klopt dan weer wel.




KMI

De weersvoorspellingen van het KMI vind je via deze link.


Buienradar

Op www.buienradar.nl kun je zelf zien waar het nu en de komende uren regent.